Showing default

OPS 6582 (TRANSIT 5E-5), 959

Orbit data source: Space-Track

OPS 6582 (TRANSIT 5E-5), 959 is a payload satellite owned by USN BuWeps (US) in LEO that was launched on Sun, 13 Dec 1964 UTC via a THOR ABLESTAR launch vehicle from the Air Force Western Test Range (AFWTR). Payload-class satellites include a variety of spacecraft equipped with specific instruments for various scientific and technological missions. These include communications satellites like Starlink; space stations such as the ISS; scientific satellites like the Hubble; Earth observation satellites from companies like Planet Labs, Umbra, and HawkEye 360; GPS; miniature CubeSats for education and research; and military/defense satellites.

Loading next visibility...
Identifier
959, 1964-083C
Orbit
LEO
Country
Flag of USUS
Related business
Manufacturer
APL
Mission
Civil Astronomy
Bus & Motor
TRANSIT 5, Unknown motor
Mass
77 kg wet, 77 kg dry
Launch date (UTC)
1964-12-13 (61 years ago)
Launch vehicle
THOR ABLESTAR
Launch site
Air Force Western Test Range (AFWTR)
Object type
Payload
Rocket body
Debris
Shape & HBR
Oct Cyl + 4 Pan + 1 Rod, 3.0 m
Radar Cross Section
1.914 m², Large (>1 m²)

Expand to show TLE details & history
Last TLE update: 8 hours ago

TLE from 8 hours ago
0 OPS 6582 (TRANSIT 5E-5)
1 00959U 64083C   25242.87081310  .00000271  00000-0  33464-3 0  9990
2 00959  90.0062 187.0491 0044322  80.5288 333.5982 13.62373876 10682
Epoch: 2025-08-30T20:53Z
TLE epoch observation values (Epoch: 2025-08-30T20:53:58.251Z)
Latitude
53.99523°
Longitude
-105.751°
Altitude
1,006.658 km
Speed
7.368 km/s
True Right ascension
12h 28m 09s
True Declination
53° 50' 13"
Sunlit
Object was in daylight at epoch
Visualization orbit readout
Latitude
Unknown
Longitude
Unknown
Altitude
Unknown
Speed
Unknown
Apparent Right ascension
Unknown
Apparent Declination
Unknown
Sunlit
N/A
Visualization observer readout
Local Sidereal Time
20:16:08
Azimuth
Unknown
Elevation
Unknown
Doppler factor
Unknown
Orbital elements
Apogee altitude
1,056.917 km
Perigee altitude
991.301 km
Semi-major axis
7,402.246 km
Eccentricity
0.00443
Inclination
90.0062°
RAAN
187.0491°
Arg. of periapsis
80.5288°
True anomaly
333.37123°
Mean anomaly
333.5982°
Eccentric anomaly
333.48483°
Mean motion
3.40799 °/min
Orbital period
105.63 mins
BSTAR
0.00033464
Loading maneuver chart data...
Computing Atmospheric mass density...

Documentation

Showing up to 5 results
|